When you browse on this site, cookies collect data to enhance your experience and personalize the content and advertising you see.
Visit our Privacy Policy to learn more. By continuing to use the site, you agree to this use of cookies and data.
  • In United Kingdom
  • List of Countries
  • For 7 days
  • Water Temperature
  • Satellite Maps
  • Weather Map
  • Weather Widgets
  • user-avatar
    Login

    Hourly Weather Pikovets'

    Today, 19 June, Wednesday

    Time Temperature Precipitation Wind Pressure Humidity
    00:00 +20°C° 0 mm 2 mps 743 mmHg 90%
    01:00 +19°C° 0 mm 2 mps 743 mmHg 91%
    02:00 +19°C° 0 mm 2 mps 743 mmHg 92%
    03:00 +19°C° 0 mm 2 mps 743 mmHg 92%
    04:00 +19°C° 0 mm 2 mps 743 mmHg 92%
    05:00 +19°C° 0 mm 2 mps 743 mmHg 91%
    06:00 +20°C° 0 mm 3 mps 743 mmHg 88%
    07:00 +22°C° 0 mm 3 mps 743 mmHg 84%
    08:00 +24°C° 0 mm 3 mps 743 mmHg 80%
    09:00 +25°C° 0 mm 3 mps 743 mmHg 76%
    10:00 +26°C° 0 mm 3 mps 744 mmHg 72%
    11:00 +27°C° 0 mm 3 mps 744 mmHg 68%
    12:00 +27°C° 0 mm 3 mps 743 mmHg 66%
    13:00 +27°C° 0 mm 3 mps 743 mmHg 65%
    14:00 +28°C° 0 mm 3 mps 743 mmHg 63%
    15:00 +28°C° 0 mm 3 mps 743 mmHg 65%
    16:00 +27°C° 0 mm 3 mps 743 mmHg 67%
    17:00 +27°C° 0 mm 3 mps 742 mmHg 69%
    18:00 +26°C° 0 mm 3 mps 742 mmHg 74%
    19:00 +24°C° 0 mm 3 mps 742 mmHg 79%
    20:00 +23°C° 0 mm 2 mps 742 mmHg 85%
    21:00 +21°C° 0 mm 2 mps 742 mmHg 86%
    22:00 +21°C° 0 mm 2 mps 742 mmHg 87%
    23:00 +20°C° 0 mm 2 mps 743 mmHg 88%

    Tomorrow, 20 June, Thursday

    Time Temperature Precipitation Wind Pressure Humidity
    00:00 +20°C° 0 mm 2 mps 742 mmHg 90%
    01:00 +19°C° 0 mm 2 mps 742 mmHg 91%
    02:00 +19°C° 0 mm 2 mps 742 mmHg 93%
    03:00 +19°C° 0 mm 2 mps 742 mmHg 93%
    04:00 +19°C° 0 mm 2 mps 742 mmHg 94%
    05:00 +19°C° 0 mm 2 mps 742 mmHg 95%
    06:00 +20°C° 0 mm 2 mps 742 mmHg 90%
    07:00 +23°C° 0 mm 2 mps 742 mmHg 86%
    08:00 +24°C° 0 mm 2 mps 742 mmHg 81%
    09:00 +26°C° 0 mm 3 mps 742 mmHg 76%
    10:00 +27°C° 0 mm 3 mps 742 mmHg 72%
    11:00 +28°C° 0 mm 3 mps 742 mmHg 67%
    12:00 +28°C° 0.1 mm 3 mps 742 mmHg 65%
    13:00 +28°C° 0.1 mm 3 mps 742 mmHg 64%
    14:00 +29°C° 0.1 mm 3 mps 742 mmHg 62%
    15:00 +29°C° 0.2 mm 3 mps 742 mmHg 65%
    16:00 +28°C° 0.2 mm 3 mps 741 mmHg 67%
    17:00 +28°C° 0.2 mm 3 mps 741 mmHg 69%
    18:00 +26°C° 0.2 mm 3 mps 741 mmHg 74%
    19:00 +25°C° 0.2 mm 3 mps 741 mmHg 79%
    20:00 +22°C° 0.2 mm 3 mps 742 mmHg 85%
    21:00 +22°C° 0 mm 3 mps 742 mmHg 85%
    22:00 +21°C° 0 mm 2 mps 742 mmHg 85%
    23:00 +21°C° 0 mm 2 mps 742 mmHg 86%

    Day after tomorrow, 21 June, Friday

    Time Temperature Precipitation Wind Pressure Humidity
    00:00 +20°C° 0 mm 2 mps 742 mmHg 87%
    01:00 +20°C° 0 mm 3 mps 742 mmHg 88%
    02:00 +19°C° 0 mm 3 mps 742 mmHg 88%
    03:00 +19°C° 0 mm 2 mps 742 mmHg 88%
    04:00 +19°C° 0 mm 2 mps 742 mmHg 88%
    05:00 +19°C° 0 mm 2 mps 742 mmHg 88%
    06:00 +21°C° 0 mm 2 mps 743 mmHg 84%
    07:00 +22°C° 0 mm 3 mps 743 mmHg 79%
    08:00 +25°C° 0 mm 3 mps 743 mmHg 75%
    09:00 +26°C° 0.1 mm 3 mps 743 mmHg 71%
    10:00 +27°C° 0.1 mm 4 mps 743 mmHg 68%
    11:00 +28°C° 0.1 mm 4 mps 743 mmHg 64%
    12:00 +29°C° 0.1 mm 4 mps 743 mmHg 62%
    13:00 +29°C° 0.1 mm 4 mps 743 mmHg 59%
    14:00 +30°C° 0.1 mm 4 mps 743 mmHg 57%
    15:00 +30°C° 0 mm 3 mps 743 mmHg 59%
    16:00 +29°C° 0 mm 3 mps 743 mmHg 62%
    17:00 +29°C° 0 mm 2 mps 742 mmHg 64%
    18:00 +27°C° 0 mm 2 mps 742 mmHg 68%
    19:00 +26°C° 0 mm 3 mps 742 mmHg 71%
    20:00 +24°C° 0 mm 3 mps 742 mmHg 74%
    21:00 +22°C° 0 mm 3 mps 742 mmHg 72%
    22:00 +22°C° 0 mm 3 mps 743 mmHg 70%
    23:00 +21°C° 0 mm 2 mps 743 mmHg 68%

    22 June, Saturday

    Time Temperature Precipitation Wind Pressure Humidity
    00:00 +21°C° 0 mm 2 mps 743 mmHg 69%
    01:00 +20°C° 0 mm 2 mps 743 mmHg 70%
    02:00 +20°C° 0 mm 2 mps 743 mmHg 71%
    03:00 +20°C° 0 mm 2 mps 743 mmHg 73%
    04:00 +20°C° 0 mm 2 mps 743 mmHg 75%
    05:00 +20°C° 0 mm 2 mps 743 mmHg 77%
    06:00 +21°C° 0 mm 2 mps 742 mmHg 77%
    07:00 +24°C° 0 mm 2 mps 743 mmHg 75%
    08:00 +26°C° 0 mm 2 mps 743 mmHg 72%
    09:00 +27°C° 0.8 mm 3 mps 743 mmHg 69%
    10:00 +28°C° 0.8 mm 3 mps 743 mmHg 66%
    11:00 +29°C° 0.8 mm 4 mps 743 mmHg 63%
    12:00 +30°C° 0.4 mm 3 mps 743 mmHg 61%
    13:00 +30°C° 0.4 mm 2 mps 743 mmHg 59%
    14:00 +30°C° 0.4 mm 2 mps 743 mmHg 57%
    15:00 +29°C° 0.2 mm 2 mps 743 mmHg 61%
    16:00 +29°C° 0.2 mm 2 mps 742 mmHg 65%
    17:00 +28°C° 0.2 mm 2 mps 742 mmHg 69%
    18:00 +27°C° 0.4 mm 2 mps 742 mmHg 71%
    19:00 +26°C° 0.4 mm 1 mps 742 mmHg 73%
    20:00 +25°C° 0.4 mm 1 mps 742 mmHg 75%
    21:00 +24°C° 0 mm 2 mps 742 mmHg 75%
    22:00 +24°C° 0 mm 2 mps 743 mmHg 75%
    23:00 +23°C° 0 mm 2 mps 743 mmHg 75%

    23 June, Sunday

    Time Temperature Precipitation Wind Pressure Humidity
    00:00 +23°C° 0 mm 2 mps 743 mmHg 75%
    01:00 +21°C° 0 mm 2 mps 743 mmHg 74%
    02:00 +20°C° 0 mm 2 mps 743 mmHg 73%
    03:00 +20°C° 0 mm 2 mps 742 mmHg 74%
    04:00 +20°C° 0 mm 2 mps 742 mmHg 74%
    05:00 +20°C° 0 mm 2 mps 742 mmHg 75%
    06:00 +23°C° 0 mm 2 mps 743 mmHg 72%
    07:00 +24°C° 0 mm 2 mps 743 mmHg 70%
    08:00 +26°C° 0 mm 2 mps 743 mmHg 68%
    09:00 +28°C° 0 mm 3 mps 743 mmHg 65%
    10:00 +29°C° 0 mm 3 mps 743 mmHg 62%
    11:00 +30°C° 0 mm 3 mps 743 mmHg 59%
    12:00 +31°C° 0.1 mm 3 mps 743 mmHg 55%
    13:00 +31°C° 0.1 mm 3 mps 743 mmHg 52%
    14:00 +33°C° 0.1 mm 3 mps 743 mmHg 48%
    15:00 +30°C° 0 mm 3 mps 742 mmHg 54%
    16:00 +29°C° 0 mm 2 mps 742 mmHg 60%
    17:00 +27°C° 0 mm 2 mps 742 mmHg 66%
    18:00 +26°C° 0 mm 2 mps 742 mmHg 65%
    19:00 +25°C° 0 mm 1 mps 742 mmHg 65%
    20:00 +25°C° 0 mm 1 mps 742 mmHg 65%
    21:00 +24°C° 0 mm 2 mps 742 mmHg 67%
    22:00 +23°C° 0 mm 2 mps 742 mmHg 70%
    23:00 +21°C° 0 mm 2 mps 741 mmHg 73%

    24 June, Monday

    Time Temperature Precipitation Wind Pressure Humidity
    00:00 +21°C° 0 mm 2 mps 741 mmHg 73%
    01:00 +21°C° 0 mm 2 mps 741 mmHg 74%
    02:00 +21°C° 0 mm 2 mps 741 mmHg 74%
    03:00 +20°C° 0 mm 2 mps 741 mmHg 77%
    04:00 +21°C° 0 mm 1 mps 741 mmHg 79%
    05:00 +21°C° 0 mm 1 mps 741 mmHg 82%
    06:00 +22°C° 0 mm 1 mps 741 mmHg 78%
    07:00 +24°C° 0 mm 1 mps 742 mmHg 75%
    08:00 +25°C° 0 mm 1 mps 742 mmHg 71%
    09:00 +26°C° 0 mm 2 mps 742 mmHg 71%
    10:00 +26°C° 0 mm 2 mps 743 mmHg 70%
    11:00 +27°C° 0 mm 3 mps 743 mmHg 70%
    12:00 +27°C° 1.2 mm 2 mps 743 mmHg 70%
    13:00 +26°C° 1.2 mm 2 mps 743 mmHg 69%
    14:00 +26°C° 1.2 mm 2 mps 742 mmHg 69%
    15:00 +26°C° 1.1 mm 3 mps 742 mmHg 73%
    16:00 +25°C° 1.1 mm 3 mps 742 mmHg 77%
    17:00 +23°C° 1.1 mm 4 mps 742 mmHg 80%
    18:00 +22°C° 0.1 mm 3 mps 742 mmHg 83%
    19:00 +21°C° 0.1 mm 2 mps 742 mmHg 86%
    20:00 +21°C° 0.1 mm 1 mps 742 mmHg 89%
    21:00 +21°C° 0 mm 1 mps 743 mmHg 90%
    22:00 +20°C° 0 mm 1 mps 743 mmHg 92%
    23:00 +20°C° 0 mm 1 mps 743 mmHg 93%
    Show more